CAPE
0 0 0 4 0 0 0 0 1 0 62 184 192 288 443 553 1211 1329 1264 1146 888 881 941 745 406 230 559 603 433 374 615 493 503 479 768 1212 1174 1070 1055 903 808 556 789 596
0 0 0 5 0 0 0 0 0 0 68 251 236 274 361 658 794 1111 1228 720 617 461 626 937 689 367 662 710 688 615 779 671 666 663 586 817 816 862 937 875 756 803 936 800
0 0 0 0 0 0 0 0 3 3 107 280 342 297 238 256 431 515 695 863 881 759 711 749 842 630 719 779 650 635 206 365 935 1022 1052 1112 1089 838 861 973 1062 1159 1033 840
0 0 0 0 0 0 0 0 0 10 40 110 297 53 221 248 243 239 778 875 763 710 773 749 660 880 748 707 599 271 373 488 710 1236 1379 1319 1036 939 762 936 975 966 1004 912
0 0 0 0 0 0 0 0 0 0 0 2 82 3 0 193 90 121 296 636 647 846 1082 984 914 856 960 898 910 963 615 672 777 1228 1381 1137 1001 888 1021 1208 1072 1073 876 873
0 0 0 0 0 0 0 0 0 0 0 0 0 0 0 0 29 17 173 282 573 1227 1463 1565 1611 1434 1191 1045 1100 1106 1076 721 699 1240 1259 1336 1322 1079 731 419 364 272 388 617
0 0 0 0 0 0 0 0 0 0 0 0 9 3 2 31 32 152 170 395 962 1212 1399 1689 2124 1883 1687 1459 1312 1343 1501 1437 1511 1819 1611 1553 609 58 127 187 169 429 99 56
0 0 0 0 0 0 0 0 0 0 0 1 1 0 0 38 75 126 93 351 1084 1404 1380 1629 2449 2607 2393 2231 2056 2047 1917 1915 2129 1984 1666 241 64 122 189 184 166 137 95 144
0 0 0 0 0 0 0 0 0 0 18 0 18 20 12 1 140 80 111 485 1219 1451 1513 1503 1667 2448 2718 2592 2531 2490 2332 2222 2036 1274 379 64 89 547 160 131 114 181 41 72
0 0 0 0 0 0 0 0 0 1 16 5 71 129 56 10 104 55 161 730 1226 1443 1525 1694 1723 2126 2261 2330 2306 2280 2199 1673 1437 1121 1137 512 553 890 639 93 141 72 117 29
0 0 0 0 0 0 0 0 0 0 4 0 9 46 47 18 1 0 105 170 1092 1497 1592 1697 1739 1799 2008 2192 2266 2146 1974 1789 1456 1367 1275 1036 863 1039 925 688 168 20 48 127
0 0 0 0 1 124 85 14 7 1 0 2 13 15 6 4 3 55 209 180 790 1395 1635 1709 1801 1924 2079 2145 1417 1419 1591 1727 1581 1403 1259 1358 1098 1022 856 692 510 232 367 328
0 0 0 0 1 135 163 54 24 0 3 8 0 0 72 59 57 186 178 311 386 1085 1606 1518 1837 1927 1605 1282 1559 1782 1847 1869 1744 1448 1448 1261 948 743 666 744 784 718 669 563
0 0 0 0 0 25 99 58 28 22 0 4 0 0 3 95 65 26 106 270 507 1302 1433 1698 1779 1479 1591 1716 2222 2198 2112 1945 1683 1199 915 855 899 932 937 861 696 745 621 595
0 0 0 0 69 82 45 48 32 141 165 48 24 8 0 20 27 15 91 427 839 1393 1044 854 993 1996 2234 2346 2054 1698 1764 1766 977 529 527 624 807 891 531 57 105 55 7 68
0 10 139 141 90 176 152 114 99 103 350 221 88 102 1 23 72 33 251 1123 1064 1293 878 324 44 561 1868 1995 1729 1393 912 490 202 189 185 291 36 0 12 29 0 62 56 6
7 66 63 81 112 88 59 107 55 42 22 5 5 94 166 153 181 275 1073 1260 1126 1163 967 491 0 0 1338 1392 964 311 103 231 137 56 97 13 9 16 30 80 78 25 56 61
149 254 252 227 99 72 36 94 40 24 42 28 1 283 274 771 1083 1255 1153 1296 1292 1130 1060 617 156 19 1191 1086 482 66 66 88 42 60 30 127 296 274 170 56 45 18 3 0
237 169 169 237 146 114 142 94 103 72 65 10 321 585 947 1195 1439 1517 1614 1520 1531 1412 1054 594 181 301 856 1205 465 264 246 215 143 175 282 307 311 179 48 24 1 0 0 0
116 344 210 207 231 136 57 69 60 25 47 519 857 500 1059 1549 1574 1551 1730 1774 1689 1184 684 327 264 838 978 890 680 445 641 367 405 405 276 113 41 0 0 3 2 0 0 0
135 98 147 208 120 77 63 126 44 38 33 683 794 366 1253 1582 1253 1543 1722 1350 968 662 781 681 712 917 645 523 679 459 452 266 146 130 43 13 1 2 9 6 7 0 0 0
102 111 97 86 94 10 120 322 113 150 864 1133 803 728 1358 1342 1137 1471 1549 977 711 489 345 391 377 246 252 233 252 218 159 151 139 65 17 2 0 0 0 0 0 0 0 0
72 45 75 64 65 35 74 531 463 522 1051 1403 802 793 827 1014 1274 1371 1002 570 364 309 269 170 77 77 57 97 110 107 86 14 2 0 0 0 0 0 0 0 0 0 0 0
23 9 12 8 10 88 94 408 479 430 505 1133 1338 1177 1188 1091 994 815 649 557 367 202 159 83 67 77 95 55 9 3 0 0 0 0 0 0 0 0 0 0 0 0 0 0
9 29 44 6 7 456 469 430 154 434 934 1190 1410 1285 1205 917 901 819 682 588 220 91 74 75 34 27 2 1 0 0 0 0 0 0 0 0 0 0 0 0 0 0 0 0
50 41 2 6 1 26 11 0 170 773 1316 1392 1105 751 598 592 291 106 84 80 61 42 3 0 3 0 0 0 0 0 0 0 0 0 0 0 0 0 0 0 0 0 0 0
CIN
-0 -0 -0 -2 -0 -0 -0 -0 -2 -0 -190 -85 -70 -98 -171 -253 -109 -71 -68 -63 -93 -83 -67 -40 -41 -45 -354 -238 -44 -42 -119 -51 -138 -40 -166 -64 -81 -64 -48 -55 -43 -45 -15 -19
-0 -0 -0 -5 -0 -0 -0 -0 -0 -0 -176 -86 -44 -44 -133 -122 -98 -92 -69 -16 -24 -43 -270 -70 -42 -35 -117 -224 -63 -191 -85 -77 -61 -51 -64 -103 -105 -94 -84 -77 -65 -20 -16 -16
-0 -0 -0 -0 -0 -0 -0 -0 -6 -2 -157 -70 -28 -26 -60 -62 -90 -140 -95 -33 -39 -52 -54 -370 -84 -35 -91 -202 -107 -57 -79 -93 -172 -113 -103 -100 -95 -83 -82 -65 -50 -45 -35 -30
-0 -0 -0 -0 -0 -0 -0 -0 -0 -90 -52 -58 -38 -32 -56 -55 -42 -65 -83 -86 -63 -60 -64 -41 -56 -42 -23 -29 -28 -52 -54 -48 -189 -95 -78 -60 -33 -29 -66 -33 -28 -45 -47 -33
-0 -0 -0 -0 -0 -0 -0 -0 -0 -0 -0 -14 -53 -14 -0 -53 -51 -108 -94 -72 -107 -90 -66 -63 -58 -45 -57 -23 -23 -19 -30 -36 -38 -123 -89 -70 -34 -38 -52 -41 -58 -37 -42 -69
-0 -0 -0 -0 -0 -0 -0 -0 -0 -0 -0 -0 -0 -0 -0 -0 -70 -304 -85 -97 -188 -115 -86 -90 -82 -47 -32 -30 -24 -27 -31 -48 -111 -138 -106 -50 -50 -21 -37 -126 -130 -104 -47 -25
-0 -0 -0 -0 -0 -0 -0 -0 -0 -0 -0 -0 -132 -27 -81 -166 -258 -68 -86 -127 -151 -133 -95 -130 -132 -174 -61 -33 -31 -24 -34 -51 -118 -61 -34 -21 -43 -300 -262 -203 -160 -32 -102 -70
-0 -0 -0 -0 -0 -0 -0 -0 -0 -0 -0 -7 -21 -16 -0 -160 -155 -55 -44 -110 -142 -149 -132 -140 -128 -125 -89 -57 -38 -30 -28 -52 -21 -11 -11 -182 -297 -266 -233 -186 -115 -36 -73 -13
-0 -0 -0 -0 -0 -0 -0 -0 -0 -0 -123 -9 -165 -201 -290 -229 -99 -66 -63 -173 -156 -140 -151 -150 -153 -137 -106 -99 -81 -47 -27 -15 -16 -41 -153 -157 -308 -45 -198 -175 -129 -17 -42 -7
-0 -0 -0 -0 -0 -0 -0 -0 -0 -27 -58 -51 -175 -247 -163 -124 -82 -123 -103 -165 -140 -178 -176 -141 -149 -163 -120 -76 -57 -31 -21 -39 -50 -61 -48 -66 -62 -28 -33 -160 -119 -86 -32 -40
-0 -0 -0 -0 -0 -13 -0 -0 -0 -0 -34 -0 -127 -166 -241 -148 -66 -14 -147 -80 -147 -176 -167 -162 -134 -151 -107 -86 -61 -46 -36 -34 -31 -47 -41 -43 -41 -25 -24 -20 -47 -115 -70 -43
-0 -0 -0 -0 -0 -29 -23 -14 -14 -1 -0 -2 -82 -194 -341 -91 -128 -166 -162 -121 -157 -145 -129 -148 -127 -105 -97 -63 -111 -100 -105 -58 -34 -46 -39 -26 -29 -30 -28 -23 -27 -36 -21 -22
-0 -0 -0 -0 -33 -18 -15 -17 -16 -6 -38 -40 -0 -0 -296 -417 -158 -121 -93 -116 -86 -160 -109 -139 -135 -124 -90 -78 -88 -88 -92 -44 -31 -37 -36 -32 -32 -31 -31 -21 -24 -26 -35 -37
-0 -0 -0 -0 -0 -18 -20 -14 -32 -36 -1 -61 -0 -0 -82 -340 -199 -242 -89 -47 -304 -178 -152 -135 -115 -154 -160 -93 -101 -77 -68 -54 -77 -102 -87 -57 -31 -27 -22 -30 -29 -28 -36 -29
-0 -0 -0 -0 -44 -24 -23 -9 -61 -75 -54 -65 -49 -62 -0 -123 -77 -114 -39 -348 -320 -122 -61 -60 -72 -145 -92 -84 -74 -116 -97 -88 -137 -137 -109 -72 -44 -33 -56 -195 -135 -134 -12 -44
-0 -89 -40 -28 -99 -108 -84 -51 -94 -44 -28 -20 -16 -59 -3 -38 -75 -78 -134 -346 -234 -119 -92 -61 -20 -1 -71 -70 -125 -126 -120 -162 -158 -104 -91 -96 -193 -0 -65 -64 -0 -163 -157 -49
-52 -48 -40 -45 -64 -52 -34 -81 -47 -53 -44 -58 -30 -30 -52 -178 -244 -97 -69 -267 -166 -87 -70 -26 -0 -0 -48 -79 -123 -178 -202 -168 -158 -107 -93 -96 -10 -6 -71 -141 -166 -47 -181 -179
-232 -102 -80 -90 -54 -26 -16 -103 -145 -52 -45 -27 -7 -102 -26 -340 -372 -316 -360 -248 -196 -118 -25 -19 -25 -55 -149 -53 -96 -196 -186 -148 -81 -75 -51 -85 -53 -32 -44 -27 -32 -65 -77 -0
-123 -129 -51 -52 -35 -25 -52 -93 -69 -66 -57 -38 -54 -230 -418 -264 -207 -213 -216 -204 -168 -96 -27 -28 -53 -378 -205 -52 -78 -20 -6 -26 -56 -63 -72 -35 -25 -53 -74 -73 -24 -0 -0 -0
-56 -41 -65 -34 -20 -13 -15 -182 -52 -64 -128 -94 -119 -70 -325 -165 -71 -89 -133 -96 -47 -36 -33 -45 -79 -206 -75 -33 -19 -14 -2 -10 -47 -36 -37 -142 -209 -0 -0 -53 -49 -0 -0 -0
-37 -181 -29 -16 -19 -61 -156 -123 -90 -67 -86 -81 -131 -7 -163 -52 -38 -60 -73 -50 -47 -32 -123 -103 -77 -52 -46 -42 -33 -33 -6 -6 -48 -83 -202 -137 -7 -19 -55 -30 -34 -0 -0 -0
-44 -30 -174 -130 -179 -75 -95 -211 -80 -103 -90 -147 -185 -41 -53 -25 -46 -76 -38 -47 -29 -101 -128 -111 -102 -66 -13 -4 -3 -2 -42 -70 -61 -93 -69 -9 -0 -0 -0 -0 -0 -0 -0 -0
-150 -145 -98 -246 -151 -270 -190 -130 -89 -92 -51 -92 -65 -29 -11 -109 -80 -44 -41 -58 -55 -116 -111 -41 -57 -51 -21 -18 -22 -14 -8 -10 -8 -0 -0 -0 -0 -0 -0 -0 -0 -0 -0 -0
-119 -215 -373 -260 -155 -126 -93 -88 -74 -61 -136 -114 -26 -26 -16 -36 -25 -35 -36 -88 -41 -69 -50 -40 -42 -34 -37 -69 -45 -117 -0 -0 -0 -0 -0 -0 -0 -0 -0 -0 -0 -0 -0 -0
-175 -538 -357 -329 -234 -123 -69 -69 -82 -187 -254 -108 -20 -17 -26 -53 -134 -93 -74 -59 -69 -53 -48 -27 -18 -75 -82 -47 -0 -0 -0 -0 -0 -0 -0 -0 -0 -0 -0 -0 -0 -0 -0 -0
-437 -285 -163 -165 -90 -153 -149 -116 -47 -101 -68 -30 -30 -142 -128 -157 -153 -127 -75 -34 -20 -18 -7 -0 -72 -2 -0 -0 -0 -0 -0 -0 -0 -0 -0 -0 -0 -0 -0 -0 -0 -0 -0 -0
Wind_Speed
nan nan nan nan nan nan nan nan nan nan nan 11 12 19 19 20 35 33 30 29 29 27 28 23 16 17 20 21 11 23 15 11 4 2 7 6 6 10 13 14 11 14 12 11
nan nan nan nan nan nan nan nan nan nan nan 10 13 16 13 17 24 31 23 24 26 20 18 21 20 19 18 19 24 15 12 13 13 8 3 4 6 8 12 14 15 14 15 14
nan nan nan nan nan nan nan nan nan nan 11 11 14 14 17 19 17 17 13 10 14 20 19 20 26 27 21 21 23 19 15 14 11 10 7 6 5 8 14 13 17 15 17 17
nan nan nan nan nan nan nan nan nan nan nan 8 15 nan 15 18 17 20 9 8 13 20 16 20 25 24 28 25 21 21 18 11 8 9 6 13 11 17 1 7 10 14 19 22
nan nan nan nan nan nan nan nan nan nan nan nan nan nan nan 20 nan 15 12 12 8 13 16 21 26 28 24 19 21 14 14 12 13 16 6 14 23 15 11 11 9 12 16 19
nan nan nan nan nan nan nan nan nan nan nan nan nan nan nan nan nan nan 13 14 17 10 6 13 20 23 21 17 17 16 15 13 9 14 13 17 18 13 14 14 15 19 22 26
nan nan nan nan nan nan nan nan nan nan nan nan nan nan nan nan nan 11 8 11 22 15 9 9 14 15 17 18 15 18 21 13 16 19 20 18 18 nan 20 18 18 20 nan nan
nan nan nan nan nan nan nan nan nan nan nan nan nan nan nan nan nan 14 nan 11 25 14 10 10 11 12 15 18 18 18 20 17 17 19 20 19 nan 20 20 21 22 25 nan 19
nan nan nan nan nan nan nan nan nan nan nan nan nan nan nan nan 22 nan 14 13 20 15 13 14 13 15 14 19 20 20 21 23 21 22 20 nan nan 19 20 19 20 25 nan nan
nan nan nan nan nan nan nan nan nan nan nan nan nan 3 nan nan 16 nan 13 8 14 15 12 14 15 19 14 17 19 20 22 25 26 23 21 20 20 21 19 nan 18 nan 17 nan
nan nan nan nan nan nan nan nan nan nan nan nan nan nan nan nan nan nan 2 5 14 20 16 15 16 14 16 19 22 20 21 23 24 25 21 20 19 21 19 16 17 nan nan 14
nan nan nan nan nan 16 nan nan nan nan nan nan nan nan nan nan nan nan 4 8 2 14 12 13 19 18 21 21 20 23 25 20 21 22 22 22 20 19 20 17 15 14 16 18
nan nan nan nan nan 15 20 nan nan nan nan nan nan nan nan nan nan 10 4 20 18 19 13 12 19 20 19 20 20 19 21 24 22 23 22 17 18 19 20 20 17 15 14 13
nan nan nan nan nan nan nan nan nan nan nan nan nan nan nan nan nan nan 16 7 17 22 21 20 22 20 18 20 22 21 24 23 24 24 24 19 14 14 17 20 21 18 15 13
nan nan nan nan nan nan nan nan nan 33 33 nan nan nan nan nan nan nan nan 18 23 28 41 39 19 33 20 20 21 22 23 23 22 26 23 19 16 16 16 nan 21 nan nan nan
nan nan 18 26 nan 34 35 31 nan 21 30 30 nan 22 nan nan nan nan 24 26 32 35 32 53 nan 39 13 18 22 23 25 26 25 26 27 26 nan nan nan nan nan nan nan nan
nan nan nan nan 19 nan nan 24 nan nan nan nan nan nan 29 32 31 35 28 30 35 36 41 50 nan nan 2 13 24 23 24 25 26 nan nan nan nan nan nan nan nan nan nan nan
26 27 28 23 nan nan nan nan nan nan nan nan nan 25 27 37 36 34 35 36 35 37 35 33 29 nan 16 12 10 nan nan nan nan nan nan 27 29 31 31 nan nan nan nan nan
28 28 31 26 21 18 23 nan 30 nan nan nan 29 31 27 33 27 25 33 31 31 31 37 32 24 21 20 16 19 14 23 26 27 27 31 32 34 32 nan nan nan nan nan nan
38 34 30 30 32 29 nan nan nan nan nan 23 18 30 32 30 34 30 35 27 27 24 17 17 19 24 17 14 23 26 25 28 28 33 32 31 nan nan nan nan nan nan nan nan
35 nan 33 31 33 nan nan 33 nan nan nan 19 14 26 29 18 21 35 35 28 27 29 27 23 23 26 23 23 32 34 38 31 33 36 nan nan nan nan nan nan nan nan nan nan
32 37 nan nan nan nan 42 41 39 31 21 15 14 15 24 23 29 36 30 35 35 37 35 32 35 35 32 33 34 35 35 32 33 nan nan nan nan nan nan nan nan nan nan nan
nan nan nan nan nan nan nan 34 16 20 24 27 24 24 26 29 31 33 40 39 36 39 37 33 nan nan nan nan 38 39 nan nan nan nan nan nan nan nan nan nan nan nan nan nan
nan nan nan nan nan nan nan 26 22 24 18 17 25 31 26 33 35 39 39 38 36 36 37 nan nan nan nan nan nan nan nan nan nan nan nan nan nan nan nan nan nan nan nan nan
nan nan nan nan nan 14 4 8 30 24 24 33 33 30 31 35 31 33 34 36 38 nan nan nan nan nan nan nan nan nan nan nan nan nan nan nan nan nan nan nan nan nan nan nan
nan nan nan nan nan nan nan nan 15 22 23 32 33 30 31 32 35 36 nan nan nan nan nan nan nan nan nan nan nan nan nan nan nan nan nan nan nan nan nan nan nan nan nan nan
Wind_Direction
nan nan nan nan nan nan nan nan nan nan nan 308 309 324 324 339 336 340 353 350 1 8 2 29 50 10 18 45 23 33 23 36 350 303 255 231 262 275 270 266 272 270 272 280
nan nan nan nan nan nan nan nan nan nan nan 304 307 305 321 337 350 355 4 1 356 11 5 31 48 46 34 17 32 36 22 11 16 15 322 277 270 268 264 268 265 260 267 275
nan nan nan nan nan nan nan nan nan nan 298 245 279 294 319 331 329 13 17 11 8 23 17 33 42 45 33 28 31 20 17 13 14 352 328 319 262 266 252 261 269 283 278 269
nan nan nan nan nan nan nan nan nan nan nan 323 283 nan 307 325 324 341 346 347 20 43 24 27 40 45 41 43 30 22 355 345 288 274 321 304 236 259 130 254 267 276 271 277
nan nan nan nan nan nan nan nan nan nan nan nan nan nan nan 301 nan 316 327 323 340 2 13 17 29 35 38 34 39 2 342 335 313 341 303 313 360 14 347 311 308 305 302 281
nan nan nan nan nan nan nan nan nan nan nan nan nan nan nan nan nan nan 322 303 303 303 351 19 35 32 27 20 16 10 348 344 346 1 340 349 339 338 312 308 301 306 302 288
nan nan nan nan nan nan nan nan nan nan nan nan nan nan nan nan nan 320 288 282 293 304 330 327 13 5 3 4 350 358 3 359 348 332 331 327 318 nan 314 320 316 318 nan nan
nan nan nan nan nan nan nan nan nan nan nan nan nan nan nan nan nan 284 nan 269 275 287 307 350 353 340 345 345 345 356 -0 348 341 341 342 335 nan 323 327 332 323 324 nan 308
nan nan nan nan nan nan nan nan nan nan nan nan nan nan nan nan 331 nan 196 264 275 292 332 336 328 328 337 340 339 336 344 355 353 347 346 nan nan 338 337 327 324 331 nan nan
nan nan nan nan nan nan nan nan nan nan nan nan nan 316 nan nan 332 nan 282 297 280 293 313 315 317 320 315 333 336 337 344 354 358 343 344 347 341 338 338 nan 335 nan 339 nan
nan nan nan nan nan nan nan nan nan nan nan nan nan nan nan nan nan nan 160 305 295 292 301 320 310 306 318 333 336 338 340 345 351 347 338 337 342 339 338 345 345 nan nan 345
nan nan nan nan nan 190 nan nan nan nan nan nan nan nan nan nan nan nan 69 354 297 308 313 302 298 302 313 322 325 330 335 339 347 338 339 338 341 341 339 349 356 348 2 2
nan nan nan nan nan 222 235 nan nan nan nan nan nan nan nan nan nan 116 345 318 297 293 291 280 288 298 301 303 305 308 313 315 326 333 339 330 335 334 337 336 345 350 345 341
nan nan nan nan nan nan nan nan nan nan nan nan nan nan nan nan nan nan 318 307 325 321 321 307 289 290 290 296 296 307 310 318 318 321 324 319 317 319 322 325 325 329 326 320
nan nan nan nan nan nan nan nan nan 278 271 nan nan nan nan nan nan nan nan 316 320 285 262 238 229 294 285 295 298 301 300 307 316 316 325 330 308 305 309 nan 309 nan nan nan
nan nan 249 248 nan 254 257 262 nan 267 273 281 nan 289 nan nan nan nan 303 299 308 314 292 254 nan 159 261 285 295 300 308 310 315 319 329 329 nan nan nan nan nan nan nan nan
nan nan nan nan 259 nan nan 259 nan nan nan nan nan nan 293 288 298 309 301 307 317 322 318 312 nan nan 115 334 312 311 312 312 319 nan nan nan nan nan nan nan nan nan nan nan
233 239 249 271 nan nan nan nan nan nan nan nan nan 277 289 291 287 286 307 312 319 320 324 343 356 nan 353 282 293 nan nan nan nan nan nan 300 303 304 304 nan nan nan nan nan
229 247 251 269 278 276 265 nan 259 nan nan nan 271 291 295 294 280 278 296 296 310 319 324 348 336 325 318 287 287 304 295 289 289 290 291 290 291 292 nan nan nan nan nan nan
233 238 258 269 274 284 nan nan nan nan nan 274 280 296 287 285 272 290 276 289 300 302 317 310 308 296 306 303 291 290 296 304 301 291 295 295 nan nan nan nan nan nan nan nan
242 nan 254 256 268 nan nan 287 nan nan nan 262 270 281 283 265 262 273 288 289 301 318 320 310 308 305 301 290 295 282 291 298 303 302 nan nan nan nan nan nan nan nan nan nan
262 268 nan nan nan nan 284 276 280 287 265 285 261 276 253 242 267 286 295 293 298 297 297 296 289 286 293 293 292 287 282 286 293 nan nan nan nan nan nan nan nan nan nan nan
nan nan nan nan nan nan nan 286 260 265 286 259 277 266 278 283 287 299 290 295 295 297 294 287 nan nan nan nan 283 283 nan nan nan nan nan nan nan nan nan nan nan nan nan nan
nan nan nan nan nan nan nan 270 242 305 269 264 262 271 277 283 291 289 291 293 290 285 281 nan nan nan nan nan nan nan nan nan nan nan nan nan nan nan nan nan nan nan nan nan
nan nan nan nan nan 232 296 251 238 251 263 277 277 281 294 294 287 286 286 283 282 nan nan nan nan nan nan nan nan nan nan nan nan nan nan nan nan nan nan nan nan nan nan nan
nan nan nan nan nan nan nan nan 289 271 281 285 288 294 291 294 292 283 nan nan nan nan nan nan nan nan nan nan nan nan nan nan nan nan nan nan nan nan nan nan nan nan nan nan